Key statistics
Satellite HODOYOSHI 1 at a glance.
Uptime
3785
Days in orbit
Revolutions
≈ 16.5
Per day
Orbit
SSO
Sun Synchronous Orbit
Inclination
97.1
Latest
Satellite identification and parameters
Extended collection of information and parameters for HODOYOSHI 1.
Object identification
Identified? True
Debris? False
Object name: HODOYOSHI 1
International designator: 2014-070B
Object number (NORAD): 40299
Object ID (CCSDS): 40299
Country: JAPAN (JPN)
Current information (Y/N): Y
RCS size: MEDIUM
Orbital parameters
Decay date: March 18, 2025
Period: 87.529 minutes
Inclination: 97.0579 deg
SMA: 6530.214 km
Apoapsis: 158.579 km
Periapsis: 145.58 km
RAAN: 141.6986 deg
Eccentricy: 0.0009953
Argument of periapsis: 253.7226 deg
Mean anomaly: 106.2983 deg
Mean motion: 16.45173221 rev/day
Mean motion (dot): 0.09737855 rev/day2
B* drag term: 0.0002504 1/REarth
Two-line elements (TLE)
Creation date: March 18, 2025, 2:25 a.m.
Reference frame: TEME
Reference center: EARTH
Epoch: March 12, 2025, 10:52 p.m. UTC
TLE line 0: 0 HODOYOSHI 1
TLE line 1: 1 40299U 14070B 25071.95296912 .09737855 23840-5 25040-3 0 9994
TLE line 2: 2 40299 97.0579 141.6986 0009953 253.7226 106.2983 16.45173221577203
Live tracking on map
Satellite HODOYOSHI 1 has decayed and is no longer in orbit. No tracking available.
In-orbit conjunctions
Satellite HODOYOSHI 1 has decayed and is no longer in orbit. No conjunctions available.
Associated space launch
HODOYOSHI 1 was lifted into orbit during the mission ‘Dnepr 1 | ASNARO’, on board a Dnepr space rocket.
The launch took place on Nov. 6, 2014, 7:35 a.m. from 370/13.
For more information about the launch, click the button.
Dnepr 1 | ASNARO
Agency: N/A
Status: Launch Successful
Launch date: Nov. 6, 2014, 7:35 a.m. UTC
Rocket: Dnepr
Launch pad: 370/13
Location: Dombarovskiy, Russian Federation
...
Latest news about this satellite
There are no fresh news available about this satellite. Check back as we update our databases every day.
Newsletter sign-up
Weekly statistics, charts and insights to help you stay on top of the space industry.
